Knox, IN

6:49 PM CST on February 13, 2016 (GMT -0600)
Starke County

Weather History for KOXI - April, 2014

Change the Weather History Date:

Tuesday, April 29, 2014

  Actual Average (KVPZ) Record (KVPZ)
Temperature  
Mean Temperature 61 °F 54 °F  
Max Temperature 73 °F 65 °F 80 °F (2007)
Min Temperature 49 °F 43 °F 32 °F (2008)
Degree Days  
Heating Degree Days 4 11  
Month to date heating degree days 470  
Since 1 July heating degree days 6047  
Cooling Degree Days 0 0  
Month to date cooling degree days 0  
Year to date cooling degree days 0  
Growing Degree Days 11 (Base 50)    
Moisture  
Dew Point 46 °F    
Average Humidity 67    
Maximum Humidity 95    
Minimum Humidity 30    
Precipitation  
Precipitation 0.00 in 0.16 in 0.40 in (1998)
Month to date precipitation 3.35  
Year to date precipitation 9.00  
Sea Level Pressure  
Sea Level Pressure 29.56 in    
Wind  
Wind Speed 9 mph (South)    
Max Wind Speed 31 mph    
Max Gust Speed 46 mph    
Visibility 7 miles    
Events      
T = Trace of Precipitation, MM = Missing Value Source: NWS Daily Summary

Daily Weather History Graph

Daily Weather History Graph

Search for Another Location

Airport or City:

Trip Planner

Search our weather history database for the weather conditions in past years. The results will help you decide how hot, cold, wet, or windy it might be!

Date:

Astronomy

Apr. 29, 2014 Rise Set
Actual Time 5:46 AM CDT 7:41 PM CDT
Civil Twilight 5:16 AM CDT 8:11 PM CDT
Nautical Twilight 4:40 AM CDT 8:48 PM CDT
Astronomical Twilight 4:01 AM CDT 9:28 PM CDT
Moon 6:04 AM CDT (4/29) 8:21 PM CDT (4/29)
Length of Visible Light 14h 55m
Length of Day
13h 55m
New Moon, 0% of the Moon is Illuminated
Apr 29
New Moon
May 6
First Quarter
May 14
Full
May 21
Last Quarter
May 28
New

Hourly Weather History & Observations

Time (CDT) Temp. Dew Point Humidity Pressure Visibility Wind Dir Wind Speed Gust Speed Precip Events Conditions
12:15 AM 50.2 °F 47.1 °F 89% 29.57 in 4.0 mi Calm Calm - N/A   Overcast
12:35 AM 50.2 °F 47.3 °F 90% 29.57 in 4.0 mi East 3.5 mph - N/A   Overcast
12:55 AM 50.4 °F 47.3 °F 89% 29.57 in 4.0 mi East 6.9 mph - N/A   Overcast
1:15 AM 50.4 °F 47.7 °F 90% 29.55 in 3.0 mi East 6.9 mph - N/A   Overcast
1:35 AM 50.2 °F 47.7 °F 91% 29.54 in 3.0 mi East 4.6 mph - N/A   Overcast
1:55 AM 50.0 °F 47.7 °F 92% 29.54 in 3.0 mi ESE 4.6 mph - N/A   Overcast
2:15 AM 50.0 °F 47.7 °F 92% 29.53 in 4.0 mi ESE 4.6 mph - N/A   Overcast
2:35 AM 50.2 °F 47.8 °F 92% 29.53 in 4.0 mi Calm Calm - N/A   Overcast
2:55 AM 50.2 °F 47.8 °F 92% 29.54 in 4.0 mi Calm Calm - N/A   Overcast
3:15 AM 50.0 °F 47.8 °F 92% 29.52 in 3.0 mi East 5.8 mph - N/A   Overcast
3:35 AM 50.0 °F 47.8 °F 92% 29.50 in 3.0 mi East 6.9 mph - N/A   Overcast
3:55 AM 50.0 °F 48.2 °F 94% 29.48 in 3.0 mi East 6.9 mph - N/A   Overcast
4:15 AM 50.2 °F 48.2 °F 93% 29.49 in 3.0 mi ESE 4.6 mph - N/A   Overcast
4:35 AM 49.8 °F 47.8 °F 93% 29.49 in 2.5 mi SSE 3.5 mph - N/A   Mostly Cloudy
4:55 AM 49.5 °F 47.7 °F 94% 29.48 in 2.0 mi Calm Calm - N/A   Overcast
5:15 AM 49.3 °F 47.7 °F 94% 29.48 in 1.5 mi ESE 4.6 mph - N/A   Overcast
5:35 AM 49.5 °F 47.8 °F 94% 29.50 in 1.8 mi SSE 4.6 mph - N/A   Overcast
5:55 AM 50.0 °F 48.4 °F 94% 29.50 in 1.0 mi SSE 3.5 mph - N/A   Overcast
6:15 AM 50.4 °F 48.7 °F 94% 29.50 in 0.5 mi South 4.6 mph - N/A   Overcast
6:35 AM 51.1 °F 49.3 °F 94% 29.50 in 0.2 mi SSE 4.6 mph - N/A   Overcast
6:55 AM 51.3 °F 49.6 °F 94% 29.50 in 0.2 mi SSE 4.6 mph - N/A   Overcast
7:15 AM 51.4 °F 50.0 °F 95% 29.51 in 0.2 mi SE 5.8 mph - N/A   Overcast
7:35 AM 51.8 °F 50.0 °F 94% 29.51 in 0.2 mi SE 5.8 mph - N/A   Overcast
7:55 AM 52.2 °F 50.5 °F 94% 29.51 in 1.2 mi SSE 4.6 mph - N/A   Overcast
8:15 AM 53.4 °F 52.0 °F 95% 29.51 in 5.0 mi South 6.9 mph - N/A   Mostly Cloudy
8:35 AM 55.2 °F 52.9 °F 92% 29.52 in 7.0 mi SSE 5.8 mph - N/A   Scattered Clouds
8:55 AM 57.6 °F 53.1 °F 85% 29.52 in 10.0 mi South 9.2 mph - N/A   Clear
9:15 AM 60.1 °F 52.5 °F 76% 29.51 in 10.0 mi SSE 11.5 mph - N/A   Clear
9:35 AM 62.4 °F 51.6 °F 68% 29.51 in 10.0 mi SSE 10.4 mph - N/A   Clear
9:55 AM 64.2 °F 51.3 °F 63% 29.51 in 10.0 mi South 11.5 mph - N/A   Clear
10:15 AM 66.0 °F 50.7 °F 58% 29.51 in 10.0 mi SSE 11.5 mph - N/A   Clear
10:35 AM 67.6 °F 49.3 °F 52% 29.51 in 10.0 mi South 15.0 mph 19.6 mph N/A   Clear
10:55 AM 69.6 °F 46.9 °F 44% 29.52 in 10.0 mi South 18.4 mph 26.5 mph N/A   Clear
11:15 AM 69.6 °F 45.0 °F 41% 29.52 in 10.0 mi South 21.9 mph 29.9 mph N/A   Scattered Clouds
11:35 AM 69.4 °F 44.6 °F 41% 29.52 in 10.0 mi South 19.6 mph 24.2 mph N/A   Scattered Clouds
11:55 AM 70.0 °F 44.1 °F 39% 29.52 in 10.0 mi South 27.6 mph 32.2 mph N/A   Scattered Clouds
12:15 PM 69.6 °F 43.0 °F 38% 29.51 in 10.0 mi South 25.3 mph 32.2 mph N/A   Scattered Clouds
12:35 PM 69.6 °F 42.6 °F 38% 29.50 in 10.0 mi South 21.9 mph 29.9 mph N/A   Scattered Clouds
12:55 PM 70.2 °F 43.0 °F 37% 29.50 in 10.0 mi South 28.8 mph 36.8 mph N/A   Mostly Cloudy
1:15 PM 70.3 °F 41.2 °F 35% 29.49 in 10.0 mi SSW 31.1 mph 43.7 mph N/A   Mostly Cloudy
1:35 PM 71.2 °F 39.2 °F 31% 29.50 in 10.0 mi South 29.9 mph 43.7 mph N/A   Mostly Cloudy
1:55 PM 72.1 °F 40.5 °F 32% 29.51 in 10.0 mi SSW 27.6 mph 36.8 mph N/A   Mostly Cloudy
2:15 PM 73.0 °F 39.4 °F 30% 29.51 in 10.0 mi SSW 31.1 mph 46.0 mph N/A   Scattered Clouds
2:35 PM 72.9 °F 40.3 °F 31% 29.53 in 10.0 mi SW 26.5 mph 38.0 mph N/A   Scattered Clouds
2:55 PM 72.9 °F 41.4 °F 32% 29.53 in 10.0 mi SW 27.6 mph 39.1 mph N/A   Scattered Clouds
3:15 PM 72.1 °F 43.3 °F 35% 29.54 in 10.0 mi SW 24.2 mph 32.2 mph N/A   Clear
3:35 PM 70.2 °F 45.5 °F 41% 29.55 in 10.0 mi WSW 19.6 mph 26.5 mph N/A   Clear
3:55 PM 69.6 °F 46.0 °F 43% 29.56 in 10.0 mi WSW 18.4 mph 27.6 mph N/A   Clear
4:15 PM 68.7 °F 45.9 °F 44% 29.57 in 10.0 mi WSW 19.6 mph 25.3 mph N/A   Scattered Clouds
4:35 PM 67.5 °F 45.9 °F 46% 29.59 in 10.0 mi WSW 11.5 mph - N/A   Scattered Clouds
4:55 PM 65.7 °F 46.2 °F 49% 29.60 in 10.0 mi SW 11.5 mph - N/A   Mostly Cloudy
5:35 PM 63.7 °F 48.0 °F 57% 29.62 in 10.0 mi SW 9.2 mph 16.1 mph N/A   Mostly Cloudy
5:55 PM 64.2 °F 46.4 °F 52% 29.63 in 10.0 mi SW 15.0 mph 24.2 mph N/A   Overcast
6:15 PM 63.1 °F 46.8 °F 55% 29.63 in 10.0 mi SW 6.9 mph - N/A   Overcast
6:35 PM 63.0 °F 41.5 °F 45% 29.64 in 10.0 mi SSW 17.3 mph 28.8 mph N/A   Overcast
6:55 PM 63.0 °F 36.7 °F 38% 29.65 in 10.0 mi South 25.3 mph 31.1 mph N/A   Overcast
7:15 PM 61.3 °F 39.2 °F 44% 29.65 in 10.0 mi SSE 11.5 mph - N/A   Scattered Clouds
7:35 PM 58.3 °F 41.4 °F 53% 29.66 in 10.0 mi SSE 10.4 mph - N/A   Scattered Clouds
7:55 PM 57.7 °F 41.0 °F 54% 29.66 in 10.0 mi South 12.7 mph 18.4 mph N/A   Clear
8:15 PM 57.7 °F 41.4 °F 54% 29.66 in 10.0 mi South 13.8 mph 17.3 mph N/A   Clear
8:35 PM 56.7 °F 41.9 °F 58% 29.66 in 10.0 mi SSE 10.4 mph - N/A   Clear
9:15 PM 54.1 °F 42.6 °F 65% 29.65 in 10.0 mi SSE 9.2 mph - N/A   Clear
9:35 PM 54.1 °F 42.8 °F 66% 29.66 in 10.0 mi SSE 6.9 mph - N/A   Clear
9:55 PM 52.2 °F 42.6 °F 70% 29.66 in 10.0 mi SSE 6.9 mph - N/A   Clear
10:15 PM 51.6 °F 42.6 °F 71% 29.67 in 10.0 mi SSE 8.1 mph - N/A   Clear
10:35 PM 52.2 °F 42.8 °F 70% 29.67 in 10.0 mi South 5.8 mph - N/A   Scattered Clouds
10:55 PM 52.9 °F 43.2 °F 70% 29.68 in 10.0 mi SSW 5.8 mph - N/A   Overcast
11:15 PM 52.9 °F 43.9 °F 71% 29.69 in 10.0 mi South 6.9 mph - N/A   Overcast
11:35 PM 53.1 °F 44.1 °F 71% 29.69 in 10.0 mi South 8.1 mph - N/A   Overcast
11:55 PM 52.9 °F 44.1 °F 72% 29.69 in 10.0 mi South 8.1 mph - N/A   Overcast